GW4885 Weather Reports


Display with metric or nautical units.
time (UTC)temp
F
wind
direction
speed
MPH
gust
MPH
rain 1hr
in
rain 24hr
in
rain mn
in
humidity
%
barometer
mb
20260505003707 52 126 0.0 0.0 0.00 0.02 0.02 93 1014.7
20260505003205 53 126 0.0 0.0 0.00 0.02 0.02 89 1014.3
20260505002701 54 108 0.0 0.0 0.00 0.02 0.02 92 1014.4
20260505002159 54 136 0.0 0.0 0.00 0.02 0.02 90 1014.4
20260505001655 55 160 0.0 0.0 0.00 0.02 0.02 90 1014.4
20260505001153 56 160 0.0 0.0 0.00 0.02 0.02 87 1014.3
20260505000650 58 162 0.0 0.0 0.00 0.02 0.02 84 1014.4
20260505000148 59 238 0.0 0.0 0.00 0.02 0.02 81 1014.4
20260504235644 60 245 0.0 0.0 0.00 0.02 0.02 80 1014.3
20260504235140 60 296 0.0 1.0 0.00 0.02 0.02 79 1014.3
20260504234638 61 285 0.0 1.0 0.00 0.02 0.02 77 1014.1
20260504234135 62 288 0.0 0.0 0.00 0.02 0.02 76 1014.3
20260504233631 62 296 0.0 2.0 0.00 0.02 0.02 75 1014.1
20260504233127 62 275 0.0 0.0 0.00 0.02 0.02 74 1014.2
20260504232625 63 206 0.0 3.0 0.00 0.02 0.02 74 1014.1
20260504232121 64 298 0.0 1.0 0.00 0.02 0.02 72 1014.3
20260504231618 64 290 1.0 2.0 0.00 0.02 0.02 70 1014.0
20260504231114 65 292 0.0 1.0 0.00 0.02 0.02 68 1014.1
20260504230610 65 302 0.0 2.0 0.00 0.02 0.02 69 1014.1
20260504230109 64 61 0.0 0.0 0.00 0.02 0.02 69 1014.1
20260504225607 64 133 0.0 0.0 0.00 0.02 0.02 64 1014.3
20260504225103 64 144 0.0 0.0 0.00 0.02 0.02 63 1014.3
20260504224600 66 100 0.0 1.0 0.00 0.02 0.02 61 1014.5
20260504224057 67 160 0.0 1.0 0.00 0.02 0.02 63 1014.2
20260504223554 67 131 0.0 3.0 0.00 0.02 0.02 62 1014.2
20260504223050 67 242 0.0 0.0 0.00 0.02 0.02 63 1014.3
20260504222547 66 307 0.0 0.0 0.00 0.02 0.02 60 1014.2
20260504222044 66 253 0.0 1.0 0.00 0.02 0.02 66 1014.3
20260504221542 65 313 1.0 2.0 0.00 0.02 0.02 64 1014.6
20260504221038 65 308 0.0 2.0 0.00 0.02 0.02 69 1014.6
20260504220535 64 241 1.0 1.0 0.00 0.02 0.02 68 1014.8
20260504220032 63 301 0.0 2.0 0.00 0.02 0.02 73 1014.6
20260504215528 61 128 0.0 0.0 0.00 0.02 0.02 75 1014.7
20260504215026 59 87 0.0 1.0 0.07 0.02 0.02 80 1014.7
20260504214521 59 156 0.0 0.0 0.07 0.02 0.02 83 1014.9
20260504214018 59 132 0.0 2.0 0.00 0.01 0.01 83 1014.9
20260504213514 59 166 0.0 2.0 0.00 0.01 0.01 81 1014.8
20260504213012 59 300 0.0 2.0 0.00 0.01 0.01 79 1014.8
20260504212507 58 139 0.0 0.0 0.00 0.01 0.01 84 1014.4
20260504212005 58 219 0.0 0.0 0.00 0.01 0.01 85 1014.7
20260504211501 58 154 1.0 1.0 0.00 0.01 0.01 83 1014.6
20260504210959 57 125 0.0 0.0 0.00 0.01 0.01 84 1014.5
20260504210456 57 320 0.0 2.0 0.00 0.01 0.01 80 1014.3
20260504205952 58 293 1.0 2.0 0.00 0.01 0.01 75 1014.3
20260504205450 60 45 3.0 6.0 0.00 0.01 0.01 75 1015.1
20260504204948 63 44 4.0 21.0 0.00 0.01 0.01 66 1014.9
20260504204446 67 182 6.0 14.0 0.00 0.01 0.01 50 1014.6
20260504203945 67 284 1.0 3.0 0.00 0.01 0.01 50 1013.7
20260504203442 68 297 0.0 1.0 0.00 0.01 0.01 48 1013.9
20260504202938 68 254 1.0 2.0 0.00 0.01 0.01 51 1013.6
20260504202435 69 262 0.0 2.0 0.00 0.01 0.01 48 1013.6
20260504201932 69 287 1.0 6.0 0.00 0.01 0.01 48 1013.7
20260504201429 71 94 2.0 4.0 0.00 0.01 0.01 48 1013.4
20260504200927 74 122 1.0 6.0 0.00 0.01 0.01 46 1013.7
20260504200423 74 290 2.0 8.0 0.00 0.01 0.01 44 1013.4
20260504195920 72 327 3.0 10.0 0.00 0.01 0.01 42 1013.3
20260504195416 70 76 1.0 2.0 0.00 0.01 0.01 48 1013.4
20260504194912 71 313 5.0 10.0 0.00 0.01 0.01 44 1013.6
20260504194408 68 341 2.0 2.0 0.00 0.01 0.01 47 1013.9
20260504193904 69 168 1.0 4.0 0.00 0.01 0.01 49 1013.7
20260504193402 68 327 2.0 8.0 0.00 0.01 0.01 48 1013.6
20260504192900 68 301 4.0 7.0 0.00 0.01 0.01 49 1013.9
20260504192357 69 204 3.0 4.0 0.00 0.01 0.01 47 1014.0
20260504191856 72 317 2.0 4.0 0.00 0.01 0.01 43 1013.9
20260504191354 72 247 2.0 3.0 0.00 0.01 0.01 45 1014.1
20260504190849 72 76 1.0 4.0 0.00 0.01 0.01 49 1014.1
20260504190345 71 206 4.0 7.0 0.00 0.01 0.01 50 1014.2
20260504185842 69 295 1.0 6.0 0.00 0.01 0.01 52 1014.1
20260504185339 69 9 3.0 8.0 0.00 0.01 0.01 47 1014.2
20260504184835 69 343 2.0 4.0 0.00 0.01 0.01 47 1014.4
20260504184331 70 332 2.0 9.0 0.00 0.01 0.01 52 1014.3
20260504183826 69 308 4.0 7.0 0.00 0.01 0.01 51 1014.5
20260504183324 68 326 1.0 4.0 0.00 0.01 0.01 54 1014.8
20260504182822 66 343 2.0 8.0 0.00 0.01 0.01 53 1015.0
20260504182319 66 264 2.0 8.0 0.00 0.01 0.01 52 1014.8
20260504181816 67 240 3.0 6.0 0.00 0.01 0.01 53 1015.1
20260504181314 67 330 3.0 3.0 0.00 0.01 0.01 51 1015.0
20260504180812 67 285 0.0 4.0 0.00 0.01 0.01 56 1015.1
20260504180310 65 327 6.0 7.0 0.00 0.01 0.01 52 1014.9
20260504175808 65 286 3.0 9.0 0.00 0.01 0.01 54 1015.2
20260504175305 65 90 1.0 7.0 0.00 0.01 0.01 55 1015.3
20260504174803 66 278 4.0 9.0 0.00 0.01 0.01 55 1015.5
20260504174300 66 280 3.0 7.0 0.00 0.01 0.01 53 1015.5
20260504173756 66 290 4.0 8.0 0.00 0.01 0.01 53 1015.5
20260504173253 67 301 1.0 7.0 0.00 0.01 0.01 52 1015.7
20260504172750 66 241 3.0 9.0 0.00 0.01 0.01 53 1015.6
20260504172247 67 87 2.0 3.0 0.00 0.01 0.01 53 1016.0
20260504171743 67 326 2.0 6.0 0.00 0.01 0.01 56 1016.0
20260504171240 65 169 2.0 6.0 0.00 0.01 0.01 56 1015.9
20260504170737 64 288 2.0 7.0 0.00 0.01 0.01 56 1015.9
20260504170234 63 262 4.0 7.0 0.00 0.01 0.01 61 1016.2
20260504160153 58 344 2.0 2.0 0.00 0.01 0.01 55 1017.4
20260504151120 58 93 2.0 4.0 0.00 0.01 0.01 55 1017.4
20260504150618 59 56 2.0 6.0 0.00 0.01 0.01 52 1017.5
20260504150115 58 274 2.0 7.0 0.00 0.01 0.01 59 1017.7
20260504141043 56 297 1.0 6.0 0.00 0.01 0.01 57 1017.7
20260504140540 55 312 2.0 6.0 0.00 0.01 0.01 59 1017.7
20260504130504 51 289 2.0 2.0 0.00 0.01 0.01 76 1017.6
20260504110351 36 37 0.0 0.0 0.00 0.01 0.01 99 1017.7
20260504100309 36 108 0.0 0.0 0.00 0.01 0.01 99 1017.5
20260504081702 40 139 0.0 0.0 0.00 0.01 0.01 98 1017.4
20260504081158 41 141 0.0 0.0 0.00 0.01 0.01 98 1017.8
20260504080655 41 144 0.0 1.0 0.00 0.01 0.01 97 1017.6
20260504080152 41 144 0.0 1.0 0.00 0.01 0.01 97 1017.6
20260504070119 43 90 1.0 1.0 0.00 0.01 0.01 95 1018.0
20260504050508 44 182 0.0 1.0 0.00 0.00 0.00 74 1018.2
20260504050005 44 184 0.0 0.0 0.00 0.00 0.00 77 1018.1
20260504045500 44 184 0.0 1.0 0.00 0.00 0.00 78 1018.0
20260504044957 44 197 0.0 0.0 0.00 0.00 0.00 78 1018.2
20260504044454 44 197 0.0 0.0 0.00 0.00 0.00 76 1018.2
20260504043952 44 197 0.0 0.0 0.00 0.00 0.00 73 1017.8
20260504043449 44 197 0.0 0.0 0.00 0.00 0.00 72 1017.9
20260504042946 44 197 0.0 0.0 0.00 0.00 0.00 73 1017.8
20260504042442 44 197 0.0 0.0 0.00 0.00 0.00 73 1017.8
20260504041939 44 197 0.0 0.0 0.00 0.00 0.00 72 1017.9
20260504041435 44 197 0.0 0.0 0.00 0.00 0.00 73 1017.7
20260504040931 44 197 0.0 0.0 0.00 0.00 0.00 73 1018.0
20260504040429 45 206 0.0 0.0 0.00 0.00 0.00 74 1017.9
20260504035925 44 267 0.0 1.0 0.00 0.00 0.00 73 1018.1
20260504035423 44 191 0.0 0.0 0.00 0.00 0.00 72 1017.9
20260504034919 44 191 0.0 0.0 0.00 0.00 0.00 73 1017.6
20260504034417 44 191 0.0 0.0 0.00 0.00 0.00 72 1017.7
20260504033914 44 191 0.0 0.0 0.00 0.00 0.00 74 1017.9
20260504033412 44 191 0.0 0.0 0.00 0.00 0.00 74 1017.7
20260504032908 44 191 0.0 0.0 0.00 0.00 0.00 74 1017.7
20260504032405 44 191 0.0 0.0 0.00 0.00 0.00 77 1017.7
20260504031902 44 201 0.0 0.0 0.00 0.00 0.00 74 1017.8
20260504031359 44 201 0.0 0.0 0.00 0.00 0.00 74 1017.7
20260504030855 44 201 0.0 0.0 0.00 0.00 0.00 76 1017.8
20260504030353 44 201 0.0 0.0 0.00 0.00 0.00 76 1017.8
20260504025848 43 201 0.0 0.0 0.00 0.00 0.00 74 1017.7
20260504025346 43 201 0.0 0.0 0.00 0.00 0.00 72 1017.8
20260504024842 44 201 0.0 0.0 0.00 0.00 0.00 71 1017.8
20260504024339 44 201 0.0 0.0 0.00 0.00 0.00 71 1018.0
20260504023836 45 201 0.0 0.0 0.00 0.00 0.00 70 1017.9
20260504023333 45 201 0.0 0.0 0.00 0.00 0.00 68 1017.9
20260504022828 46 203 0.0 0.0 0.00 0.00 0.00 68 1017.7
20260504022325 46 203 0.0 0.0 0.00 0.00 0.00 65 1018.0
20260504021822 46 203 0.0 0.0 0.00 0.00 0.00 68 1018.0
20260504021320 46 203 0.0 0.0 0.00 0.00 0.00 67 1017.7
20260504020816 46 203 0.0 0.0 0.00 0.00 0.00 70 1017.9
20260504020313 47 201 0.0 0.0 0.00 0.00 0.00 65 1017.9
20260504015809 47 201 0.0 0.0 0.00 0.00 0.00 62 1017.9
20260504015305 47 201 0.0 0.0 0.00 0.00 0.00 60 1017.7
20260504014801 46 201 0.0 0.0 0.00 0.00 0.00 64 1017.7
20260504014257 46 201 0.0 0.0 0.00 0.00 0.00 65 1017.9
20260504013755 46 201 0.0 0.0 0.00 0.00 0.00 64 1017.8
20260504013253 46 201 0.0 0.0 0.00 0.00 0.00 66 1017.7
20260504012749 47 203 0.0 0.0 0.00 0.00 0.00 63 1017.6
20260504012247 47 149 1.0 1.0 0.00 0.00 0.00 62 1017.4
20260504011744 46 149 1.0 2.0 0.00 0.00 0.00 60 1017.3
20260504011240 46 150 0.0 1.0 0.00 0.00 0.00 61 1017.5
20260504010737 46 150 1.0 2.0 0.00 0.00 0.00 60 1017.5
20260504010232 46 189 0.0 1.0 0.00 0.00 0.00 62 1017.3
20260504005729 46 196 1.0 1.0 0.00 0.00 0.00 66 1017.2
20260504005226 46 204 0.0 0.0 0.00 0.00 0.00 63 1017.3
20260504004724 46 204 0.0 0.0 0.00 0.00 0.00 63 1017.2
20260504004221 45 212 0.0 0.0 0.00 0.00 0.00 55 1017.4